Theta_e
332 326 329 322 311 315 310 312 317 321 324 330 332 329 326 328 325 317 330 337 350 350 357 361 365 365 365 365 363 362 362 362 362 361 361 362 362 361 362 362 363 361 357 357 356 356 356 357 356
323 321 322 316 307 305 311 319 316 317 328 330 331 331 330 327 334 330 328 343 350 354 355 359 364 364 365 364 363 362 362 362 361 361 361 361 360 360 360 360 360 359 359 358 356 356 355 354 353
324 321 314 310 308 306 312 318 315 318 324 327 327 334 331 331 336 335 332 349 351 351 353 361 363 363 361 363 362 363 362 362 361 360 360 360 359 358 358 357 357 356 355 356 356 356 356 355 354
319 318 314 306 305 311 315 315 318 319 321 324 326 330 337 339 339 338 333 346 347 347 355 361 363 363 363 362 362 362 361 361 360 359 358 357 357 357 357 357 357 355 353 353 352 353 353 352 351
318 314 307 305 306 312 317 317 319 318 320 319 321 330 332 338 343 336 333 342 344 345 357 358 363 363 362 361 361 361 361 360 359 358 357 356 356 357 357 358 357 355 354 353 352 351 350 349 348
312 313 305 303 307 313 315 317 319 320 322 321 320 332 332 339 338 333 336 339 343 351 354 355 362 362 362 361 361 361 361 360 359 358 357 356 356 356 358 358 356 353 351 349 347 348 348 348 348
311 310 305 306 308 311 314 318 318 319 321 321 326 329 334 335 335 334 336 338 341 353 349 351 354 359 361 361 362 361 361 360 359 358 356 354 354 356 357 357 355 352 350 349 348 347 346 346 347
313 311 306 307 306 308 315 316 320 319 324 330 329 327 329 334 334 333 334 336 339 347 345 345 350 352 353 355 362 362 361 360 360 358 357 355 353 353 355 356 356 353 350 348 347 346 346 347 348
316 306 304 307 306 311 315 313 319 322 323 327 333 327 328 337 334 332 331 332 335 342 343 342 343 345 345 347 355 360 359 359 359 356 357 354 346 346 348 350 356 355 352 350 348 348 348 349 350
310 306 307 312 312 311 313 313 315 316 319 325 332 332 329 336 333 331 330 329 331 335 341 341 342 343 342 344 353 352 352 353 353 351 353 350 347 348 347 351 355 354 353 353 353 352 352 351 339
311 306 311 312 312 313 312 312 316 315 322 326 324 323 333 335 334 332 332 332 333 334 340 341 344 345 341 342 352 348 350 350 352 354 354 350 347 351 349 346 343 347 350 344 347 346 344 338 338
308 311 312 312 312 311 310 313 312 315 319 328 327 325 329 336 335 333 333 334 334 335 337 341 343 347 346 346 352 347 347 349 349 351 357 355 352 353 348 348 343 344 343 342 343 340 343 341 341
309 310 312 312 311 311 312 310 311 313 318 322 326 328 331 337 337 339 338 338 338 336 337 340 343 349 351 367 352 349 347 348 348 351 354 352 353 352 351 351 351 347 346 344 344 347 344 343 345
312 311 311 312 311 312 309 310 311 313 318 317 319 321 323 327 331 336 339 340 342 341 341 341 344 355 351 360 367 357 354 354 355 353 352 355 358 355 352 352 354 352 353 351 348 347 350 349 346
311 307 309 310 310 309 311 307 308 313 316 315 316 319 320 321 322 326 333 344 351 355 349 348 349 353 355 359 366 366 361 354 356 355 360 355 356 359 354 352 353 352 354 354 355 352 354 351 349
307 307 302 309 310 310 309 302 311 313 313 314 315 317 318 320 337 342 342 339 346 359 359 359 349 353 358 360 363 361 362 362 354 358 358 355 356 356 360 352 352 349 351 353 354 351 348 350 346
307 301 303 305 311 310 308 305 312 315 314 314 315 319 321 336 338 341 344 345 349 351 363 360 362 352 356 360 357 359 354 360 362 359 359 356 353 353 355 352 350 355 349 349 350 349 349 346 351
303 303 304 304 309 310 307 307 311 314 314 315 323 328 331 333 332 336 338 341 345 349 348 359 361 363 358 357 358 357 353 356 356 356 360 359 355 354 353 350 354 355 351 350 347 348 358 356 346
306 305 304 307 310 308 307 307 309 314 314 319 325 327 328 329 331 331 331 333 335 339 341 348 345 366 357 357 354 353 353 353 357 359 361 358 354 354 359 352 354 352 352 350 359 355 354 348 344
305 303 304 307 309 307 307 305 309 312 315 321 322 324 324 323 326 326 326 327 328 330 334 337 344 348 359 360 359 356 355 355 355 355 356 355 358 358 356 351 346 352 356 359 357 352 348 346 338
305 304 304 304 306 307 305 303 307 313 318 320 323 323 323 319 319 320 321 322 325 325 327 330 332 338 339 348 355 356 360 355 353 354 355 355 356 355 355 353 351 358 357 353 352 348 344 341 337
301 308 306 304 301 297 306 296 305 311 313 316 319 319 320 318 318 318 317 320 321 323 325 326 327 330 332 336 345 352 351 346 349 353 351 353 354 354 353 355 352 356 353 351 350 348 343 336 335
303 306 304 303 300 300 301 298 302 311 310 313 316 317 318 318 317 316 316 317 320 321 322 324 324 324 325 328 330 331 333 341 346 348 345 356 355 358 356 356 356 354 354 353 349 348 343 342 341
308 305 304 304 301 294 300 299 300 306 310 312 315 316 316 317 317 318 319 319 319 319 319 321 323 322 323 325 325 326 327 329 330 333 335 335 339 337 339 347 340 337 340 347 344 346 346 341 342
306 303 295 294 295 294 304 300 305 310 312 313 313 314 315 316 317 317 317 316 318 319 317 318 319 320 322 320 322 324 324 325 325 328 331 331 331 333 334 336 336 335 336 335 341 344 343 343 341
303 302 294 288 290 294 304 297 304 312 313 314 316 315 315 314 315 315 315 316 316 317 319 319 322 322 324 323 322 323 325 325 326 326 326 328 331 334 335 335 335 336 339 340 341 342 342 341 342
302 299 305 298 300 294 296 304 309 312 311 312 313 315 314 314 315 315 316 316 315 316 316 318 319 320 321 321 325 323 323 323 324 326 328 329 329 329 330 331 330 332 334 337 340 342 341 341 342
303 306 296 299 291 290 296 298 300 306 307 309 309 314 314 315 314 315 315 315 316 315 315 315 314 314 316 317 318 318 319 320 324 325 325 326 328 329 330 331 331 330 332 335 332 333 335 339 341
302 302 301 301 298 291 290 296 309 307 309 308 308 310 316 315 314 315 315 316 316 315 313 313 312 312 314 315 316 317 316 318 320 320 320 320 324 325 324 326 329 329 333 333 332 331 331 330 337
305 302 301 294 294 299 297 296 309 309 309 309 308 309 316 317 316 315 317 317 317 315 315 312 312 311 312 314 315 316 317 318 317 319 320 321 320 320 320 321 323 324 326 330 328 329 329 329 330
Wind_Speed
15 16 12 12 8 5 6 16 22 8 11 7 8 5 14 8 11 9 16 21 25 22 17 17 15 15 15 15 14 14 13 11 9 10 10 10 11 10 10 9 10 10 11 11 10 9 9 9 8
12 17 11 10 10 12 7 14 13 9 12 6 2 22 20 16 12 18 13 25 24 20 15 15 15 15 15 15 15 15 13 12 11 10 10 10 9 10 9 8 8 9 8 9 9 8 7 7 6
14 15 9 6 12 12 4 21 10 7 5 7 5 27 25 7 13 12 17 27 23 19 15 15 15 15 16 14 14 14 13 12 11 11 9 9 9 9 8 7 7 7 7 7 7 7 6 5 3
8 9 7 10 16 17 12 9 4 2 8 10 1 18 11 3 9 13 19 26 21 19 19 17 16 15 16 15 14 13 13 12 11 11 10 9 8 8 8 7 7 7 6 6 6 5 5 4 3
8 9 11 14 14 15 11 9 6 2 7 12 3 19 10 9 15 19 18 20 20 20 18 17 17 16 15 16 15 13 12 12 11 11 10 9 8 7 7 7 6 6 6 5 5 5 4 2 2
9 10 12 14 16 10 9 4 7 7 5 13 4 19 10 11 14 18 19 17 19 20 18 17 17 16 16 15 15 14 13 11 11 10 9 8 7 6 6 6 6 5 4 4 3 3 3 2 3
12 11 16 19 10 8 8 6 11 7 8 11 10 18 12 15 16 14 16 16 18 21 18 14 15 14 15 15 14 13 12 11 10 9 8 8 7 6 6 5 5 5 4 4 4 4 4 4 5
10 12 19 16 11 8 13 7 2 8 12 8 3 9 7 13 17 17 15 16 18 19 18 16 14 15 13 12 13 12 11 10 10 9 8 8 8 7 7 6 6 5 5 5 5 5 6 7 8
10 10 13 14 5 8 9 6 8 4 10 8 9 13 12 10 16 18 16 17 16 16 18 17 17 15 14 14 12 11 13 11 9 8 8 7 6 8 10 10 11 8 6 6 7 8 9 10 11
10 11 15 14 15 14 10 5 9 9 6 19 19 9 13 15 15 16 16 15 17 17 19 17 16 15 15 12 14 11 11 8 8 8 9 7 9 7 10 9 10 8 7 7 9 11 11 9 7
11 13 11 7 12 12 13 9 6 13 19 12 13 21 20 17 14 15 14 14 16 15 14 17 14 15 15 11 10 6 6 6 7 10 9 8 6 7 7 6 5 5 9 6 8 8 7 9 8
9 14 5 10 9 7 9 11 8 11 16 25 24 27 32 18 14 15 14 13 13 16 13 16 16 13 11 9 10 9 7 8 8 9 10 7 5 4 5 5 8 8 6 9 7 6 7 9 5
6 15 2 8 4 8 8 9 12 12 12 11 28 30 28 17 14 13 14 17 18 16 14 13 15 12 9 3 9 10 9 9 10 11 10 7 5 4 5 5 6 9 9 8 8 4 5 5 5
6 9 4 7 8 8 6 10 12 11 4 5 2 5 5 4 10 12 5 5 4 13 13 14 14 11 10 4 3 6 6 6 6 6 9 9 4 4 4 4 4 4 3 6 6 5 5 4 5
7 10 12 12 11 5 3 12 17 13 4 5 4 7 2 6 8 13 5 7 2 3 13 13 11 14 10 7 2 0 3 5 3 4 7 11 7 5 5 4 4 4 4 5 3 2 2 4 5
11 13 13 16 9 6 4 15 14 15 2 7 6 8 4 3 24 25 23 20 16 1 7 9 10 14 11 8 4 3 2 2 2 4 4 11 10 7 3 4 4 5 3 3 3 3 5 5 5
14 11 15 11 11 3 5 14 11 7 3 5 5 8 10 23 26 23 26 25 24 21 4 7 8 15 15 9 7 6 5 4 5 3 4 9 10 10 6 6 5 5 3 3 3 4 4 4 2
11 10 7 2 12 8 6 11 11 8 6 2 14 15 18 23 22 21 23 22 22 20 23 14 10 11 15 9 7 6 8 8 7 5 3 1 7 8 9 7 6 3 3 2 4 5 2 2 7
12 11 10 8 3 4 8 12 14 7 10 12 15 14 15 18 19 22 22 21 20 21 22 20 22 8 11 8 8 8 8 7 6 5 6 6 7 7 7 7 4 5 5 6 1 1 5 5 5
9 8 9 2 3 4 11 12 13 12 11 16 16 14 15 16 17 16 17 19 20 19 19 24 23 22 6 2 4 7 8 6 8 9 10 11 7 6 7 7 8 9 5 5 4 4 3 2 3
8 9 9 11 13 13 17 17 17 11 19 15 16 15 15 11 10 13 16 18 19 20 19 17 17 17 15 16 7 4 3 4 7 9 8 10 11 10 8 9 8 6 5 6 6 5 6 5 2
10 11 7 9 11 12 16 12 7 20 17 13 16 13 14 10 9 11 14 15 16 15 15 16 17 17 16 18 13 11 6 9 5 6 12 15 17 13 11 7 7 6 6 7 7 6 5 4 5
12 12 10 14 14 16 17 11 14 21 19 15 17 14 13 9 8 10 12 12 13 13 13 12 14 17 18 18 16 11 12 9 8 9 9 9 8 4 3 9 7 5 6 9 12 9 6 6 4
9 13 15 16 15 14 19 16 7 7 17 17 16 13 10 8 8 7 9 10 10 11 12 10 11 12 14 15 15 16 15 13 10 12 11 10 11 10 11 8 6 4 16 13 7 8 8 5 5
8 10 9 11 11 14 11 15 12 13 13 13 15 12 11 10 8 7 8 9 11 13 13 10 9 10 10 12 10 12 12 13 13 11 8 9 8 6 8 7 3 3 4 7 19 5 2 5 5
10 8 7 13 13 15 7 4 11 13 13 14 15 10 13 10 9 7 7 7 8 9 10 12 12 11 10 9 11 9 6 4 5 5 5 6 6 5 4 6 6 6 5 8 6 3 3 5 7
7 7 12 8 14 14 14 5 8 12 10 9 10 11 10 10 8 4 6 5 7 7 9 8 10 12 14 14 9 7 6 7 6 8 8 7 6 6 8 8 8 8 9 2 7 5 6 4 7
8 10 7 7 7 9 9 6 9 10 9 7 7 10 10 10 11 6 4 2 2 3 6 9 10 10 11 11 11 11 12 12 11 9 9 10 9 9 9 7 5 6 6 7 7 5 6 4 5
7 9 4 7 7 10 11 2 8 8 7 4 3 5 12 10 11 12 9 5 2 3 5 5 7 8 8 8 8 8 9 11 10 10 10 11 10 11 10 11 11 11 8 4 4 7 6 5 5
7 11 12 10 11 10 11 8 9 7 9 5 4 5 8 14 12 13 12 10 8 3 3 5 6 6 5 3 3 4 4 5 6 7 8 9 9 9 10 11 11 11 10 10 8 7 6 6 5
Wind_Direction
288 271 245 263 258 191 91 269 238 58 65 49 43 117 106 136 26 85 135 113 115 124 127 130 131 135 133 132 129 125 128 127 126 122 119 117 115 110 107 108 109 108 106 105 105 102 99 99 97
295 299 283 266 274 271 169 260 284 45 84 104 62 72 41 48 84 114 117 116 118 123 135 134 134 134 134 133 131 130 132 132 132 130 128 123 119 116 113 111 112 112 111 111 112 110 108 103 98
271 269 278 242 255 269 159 194 62 111 116 84 104 108 122 247 113 131 120 112 122 131 129 128 138 135 139 132 131 133 135 137 138 137 134 131 130 128 126 126 125 125 124 121 118 118 120 122 125
261 238 241 259 271 262 145 103 98 253 128 106 200 97 102 24 142 124 138 122 133 142 129 136 135 137 136 136 134 135 137 139 142 140 139 140 139 137 136 138 137 134 132 133 134 136 139 151 173
239 273 247 262 256 268 52 75 325 237 136 125 225 93 94 93 104 128 139 131 139 141 128 140 138 138 138 140 138 140 141 142 144 144 146 147 146 143 142 142 141 139 139 143 147 146 153 169 211
260 233 268 255 231 103 69 13 296 290 103 117 175 102 84 105 120 132 139 143 138 125 140 140 139 140 142 144 145 147 145 145 146 147 147 146 147 148 150 152 153 154 156 158 162 168 179 201 240
263 273 277 296 328 81 91 1 284 340 305 159 132 100 125 128 131 138 140 154 141 128 136 145 149 145 145 147 148 148 147 146 145 146 146 148 154 163 169 172 171 175 185 195 201 212 226 237 245
258 286 282 276 294 89 92 298 48 275 90 341 14 90 88 124 141 143 151 156 148 139 139 154 154 159 160 159 154 153 149 147 147 151 156 161 166 176 187 187 198 200 210 218 226 231 238 246 248
271 270 259 262 227 77 85 297 70 1 293 55 85 140 169 220 153 155 162 163 157 150 147 160 165 166 173 163 164 157 157 156 156 164 174 176 202 185 181 204 166 193 212 231 234 238 236 239 246
233 252 286 5 22 13 48 349 9 308 230 56 72 17 169 192 161 165 169 168 164 166 155 162 169 165 180 167 155 175 172 179 182 185 178 218 223 183 194 157 167 191 213 236 242 245 248 254 254
243 255 348 355 35 359 338 312 10 295 85 89 76 9 298 172 171 170 177 175 173 175 161 165 172 162 185 173 149 181 175 182 188 194 175 210 251 177 145 157 176 187 215 222 218 234 232 233 231
241 278 357 323 44 326 295 332 315 313 96 134 128 132 265 253 178 174 185 183 178 171 183 165 165 165 193 165 158 173 200 186 184 194 187 205 212 171 182 184 183 192 190 214 200 217 227 229 266
260 271 148 284 278 278 319 298 277 300 85 126 160 183 211 181 179 204 191 187 181 168 172 170 161 162 183 188 171 171 198 188 195 180 185 191 212 215 197 240 181 202 180 207 193 210 176 210 238
320 285 324 247 269 271 256 270 263 254 195 104 78 261 182 231 182 183 194 299 202 152 168 174 169 155 174 172 197 165 188 188 200 184 179 186 214 225 196 220 232 276 196 200 203 199 169 219 247
312 258 257 240 238 256 38 263 242 246 142 117 322 277 90 27 348 4 16 176 202 118 155 165 166 156 167 177 152 300 197 208 187 215 168 174 196 242 203 241 215 237 260 262 324 25 194 226 275
249 254 260 230 148 172 220 277 216 205 207 66 299 281 72 59 44 20 9 18 6 228 136 145 169 153 163 171 191 227 276 285 232 216 196 177 179 205 226 252 261 227 271 264 205 267 253 200 227
220 255 233 139 165 182 208 286 105 99 270 45 296 31 42 49 32 17 16 6 1 4 143 157 170 163 166 169 195 221 225 234 258 248 224 182 184 188 201 212 238 234 222 264 276 238 235 283 232
328 239 245 183 138 163 264 274 282 136 118 210 65 50 32 40 26 17 12 4 358 7 4 339 171 146 155 167 183 205 217 211 224 233 239 177 191 200 181 223 237 235 193 226 269 251 52 352 29
322 322 333 327 4 29 271 269 277 155 158 101 75 53 32 23 19 14 7 4 2 6 358 354 6 6 132 161 191 213 225 219 207 233 223 223 198 198 184 204 227 231 215 209 244 157 55 60 26
310 299 268 286 322 294 281 274 257 256 112 85 80 71 56 19 13 11 10 12 13 7 5 2 8 2 331 217 199 203 215 217 206 211 219 218 206 207 180 193 212 210 163 131 138 137 126 110 111
272 270 324 342 337 297 258 258 242 136 106 103 97 92 80 48 18 15 19 19 17 18 11 15 12 8 11 352 315 305 278 259 211 210 198 193 201 204 217 212 226 189 181 155 153 145 158 186 150
296 17 358 298 297 285 335 301 5 145 127 121 100 80 74 58 39 41 32 32 30 26 25 24 24 22 18 18 11 351 298 272 306 288 217 188 180 198 208 221 214 216 192 180 175 189 192 128 164
303 348 310 287 278 283 278 264 258 149 152 131 95 82 75 75 50 54 47 38 47 38 34 33 33 35 29 32 28 22 25 5 353 317 349 314 168 146 248 218 215 228 240 197 173 162 176 171 175
307 297 280 272 260 254 255 246 287 154 122 110 100 97 85 73 73 69 68 39 40 54 45 27 41 40 39 38 30 23 21 13 18 4 357 34 20 43 23 1 37 334 331 280 235 178 171 192 201
219 272 306 294 225 246 241 221 87 101 83 91 104 95 93 75 70 62 47 53 35 32 46 52 50 45 48 56 38 28 19 19 15 6 0 16 26 5 13 351 28 28 98 13 344 15 57 228 230
316 294 295 301 303 319 62 278 117 113 109 105 111 107 106 98 84 68 63 52 57 47 31 13 44 56 51 49 39 26 6 13 347 355 351 347 356 349 342 328 316 283 235 114 197 305 236 247 238
340 286 345 309 282 281 282 148 119 131 116 97 120 117 106 110 108 75 77 50 58 55 52 36 45 32 33 27 32 37 19 8 356 357 355 338 10 346 346 351 344 347 340 340 188 166 204 242 245
235 318 292 219 276 269 276 301 91 166 120 83 36 125 128 127 129 122 68 115 117 104 82 61 52 40 36 29 23 15 10 5 4 4 5 0 352 348 346 321 307 305 305 328 346 0 9 254 212
176 243 241 260 292 294 294 323 96 92 79 50 331 320 152 166 162 161 173 177 84 56 87 83 65 54 37 21 29 24 14 3 3 357 355 352 351 348 347 344 355 353 324 310 313 323 316 301 312
326 307 295 277 284 284 299 277 96 149 152 213 254 341 159 178 182 182 183 181 162 135 106 115 99 90 82 42 6 358 2 348 2 350 344 343 344 337 332 338 342 350 353 1 3 330 336 325 353